Photometre #846[NE_1.6_Dp] Watnall_MO AOT

File : 20210610_846.hum

10/06/2021,04:53:54,TEMP=17.1,BA=5.48,STAT.A,ExtBa=13.10
10/06/2021,04:58:40,TEMP=17.2,BA=5.48,STAT.A,ExtBa=13.00
10/06/2021,05:04:10,TEMP=17.3,BA=5.32,STAT.A,ExtBa=13.00
10/06/2021,05:10:38,TEMP=17.3,BA=5.48,STAT.A,ExtBa=13.00
10/06/2021,05:18:20,TEMP=17.3,BA=5.48,STAT.A,ExtBa=13.00
10/06/2021,05:27:41,TEMP=17.4,BA=5.32,STAT.A,ExtBa=13.00
10/06/2021,05:39:17,TEMP=17.4,BA=5.44,STAT.B,ExtBa=13.00
10/06/2021,05:44:44,TEMP=17.5,BA=5.36,STAT.A,ExtBa=12.90
10/06/2021,05:50:48,TEMP=17.6,BA=5.56,STAT.A,ExtBa=12.90
10/06/2021,05:57:34,TEMP=17.6,BA=5.56,STAT.A,ExtBa=12.90
10/06/2021,06:05:10,TEMP=17.5,BA=5.44,STAT.A,ExtBa=13.00
10/06/2021,06:13:48,TEMP=17.4,BA=5.48,STAT.C,ExtBa=13.00
10/06/2021,06:23:39,TEMP=17.3,BA=5.56,STAT.A,ExtBa=13.00
10/06/2021,06:35:05,TEMP=17.4,BA=5.56,STAT.A,ExtBa=13.00
10/06/2021,06:48:23,TEMP=17.7,BA=5.64,STAT.D,ExtBa=13.00
10/06/2021,06:50:23,TEMP=18.2,BA=5.52,STAT.A,ExtBa=12.90
10/06/2021,07:03:23,TEMP=17.8,BA=5.64,STAT.D,ExtBa=13.00
10/06/2021,07:05:23,TEMP=18.3,BA=5.64,STAT.A,ExtBa=12.90
10/06/2021,07:18:23,TEMP=17.8,BA=5.64,STAT.D,ExtBa=13.00
10/06/2021,07:24:18,TEMP=17.9,BA=5.48,STAT.B,ExtBa=12.90
10/06/2021,07:36:23,TEMP=17.8,BA=5.64,STAT.D,ExtBa=13.00
10/06/2021,07:48:23,TEMP=17.8,BA=5.64,STAT.D,ExtBa=13.00
10/06/2021,08:00:24,TEMP=18.3,BA=5.64,STAT.D,ExtBa=13.00
10/06/2021,08:04:36,TEMP=18.5,BA=5.64,STAT.E,ExtBa=13.00
10/06/2021,08:06:36,TEMP=18.9,BA=5.64,STAT.E,ExtBa=12.90
10/06/2021,08:18:24,TEMP=18.6,BA=5.68,STAT.D,ExtBa=13.00
10/06/2021,08:20:25,TEMP=19.2,BA=5.56,STAT.D,ExtBa=12.90
10/06/2021,08:33:24,TEMP=19.8,BA=5.64,STAT.D,ExtBa=13.00
10/06/2021,08:35:23,TEMP=20.2,BA=5.64,STAT.D,ExtBa=13.00
10/06/2021,08:48:24,TEMP=20.2,BA=5.64,STAT.D,ExtBa=13.00
10/06/2021,08:50:24,TEMP=20.9,BA=5.56,STAT.D,ExtBa=13.00
10/06/2021,09:03:24,TEMP=21.2,BA=5.64,STAT.D,ExtBa=13.10
10/06/2021,09:05:25,TEMP=21.6,BA=5.64,STAT.F,ExtBa=13.00
10/06/2021,09:18:24,TEMP=21.0,BA=5.68,STAT.D,ExtBa=13.20
10/06/2021,09:20:23,TEMP=21.6,BA=5.60,STAT.D,ExtBa=13.20
10/06/2021,09:33:24,TEMP=21.5,BA=5.64,STAT.D,ExtBa=13.30
10/06/2021,09:35:26,TEMP=22.1,BA=5.64,STAT.D,ExtBa=13.20
10/06/2021,09:48:24,TEMP=21.7,BA=5.64,STAT.D,ExtBa=13.30
10/06/2021,09:50:31,TEMP=22.2,BA=5.56,STAT.D,ExtBa=13.20
10/06/2021,10:03:24,TEMP=21.3,BA=5.64,STAT.D,ExtBa=13.10
10/06/2021,10:05:24,TEMP=21.6,BA=5.64,STAT.F,ExtBa=13.10
10/06/2021,10:12:24,TEMP=21.2,BA=5.64,STAT.D,ExtBa=13.10
10/06/2021,10:19:40,TEMP=21.0,BA=5.64,STAT.D,ExtBa=13.10
10/06/2021,10:33:24,TEMP=21.0,BA=5.64,STAT.D,ExtBa=13.20
10/06/2021,10:35:23,TEMP=21.5,BA=5.64,STAT.D,ExtBa=13.10
10/06/2021,10:48:24,TEMP=21.0,BA=5.64,STAT.D,ExtBa=13.20
10/06/2021,10:50:23,TEMP=21.5,BA=5.56,STAT.D,ExtBa=13.10
10/06/2021,11:03:24,TEMP=21.0,BA=5.64,STAT.D,ExtBa=13.20
10/06/2021,11:05:25,TEMP=21.5,BA=5.64,STAT.F,ExtBa=13.20
10/06/2021,11:18:25,TEMP=21.3,BA=5.64,STAT.D,ExtBa=13.30
10/06/2021,11:20:22,TEMP=21.8,BA=5.56,STAT.D,ExtBa=13.30
10/06/2021,11:33:25,TEMP=22.0,BA=5.64,STAT.D,ExtBa=13.40
10/06/2021,11:35:23,TEMP=22.6,BA=5.64,STAT.D,ExtBa=13.30
10/06/2021,11:48:25,TEMP=22.0,BA=5.64,STAT.D,ExtBa=13.40
10/06/2021,11:50:23,TEMP=22.5,BA=5.56,STAT.D,ExtBa=13.40
10/06/2021,12:03:25,TEMP=22.5,BA=5.64,STAT.D,ExtBa=13.60
10/06/2021,12:05:31,TEMP=23.1,BA=5.64,STAT.F,ExtBa=13.50
10/06/2021,12:18:25,TEMP=22.9,BA=5.64,STAT.D,ExtBa=13.60
10/06/2021,12:20:23,TEMP=23.4,BA=5.56,STAT.D,ExtBa=13.50
10/06/2021,12:33:25,TEMP=23.0,BA=5.64,STAT.D,ExtBa=13.70
10/06/2021,12:35:18,TEMP=23.5,BA=5.64,STAT.D,ExtBa=13.60
10/06/2021,12:48:25,TEMP=23.3,BA=5.64,STAT.D,ExtBa=13.80
10/06/2021,12:50:34,TEMP=23.9,BA=5.52,STAT.D,ExtBa=13.80
10/06/2021,13:03:25,TEMP=24.0,BA=5.64,STAT.D,ExtBa=13.70
10/06/2021,13:05:25,TEMP=24.5,BA=5.64,STAT.F,ExtBa=13.60
10/06/2021,13:18:25,TEMP=23.8,BA=5.64,STAT.D,ExtBa=13.60
10/06/2021,13:20:41,TEMP=24.3,BA=5.52,STAT.D,ExtBa=13.40
10/06/2021,13:33:24,TEMP=24.0,BA=5.64,STAT.D,ExtBa=13.60
10/06/2021,13:35:23,TEMP=24.5,BA=5.64,STAT.D,ExtBa=13.60
10/06/2021,13:48:24,TEMP=24.3,BA=5.64,STAT.D,ExtBa=13.70
10/06/2021,13:50:32,TEMP=24.7,BA=5.52,STAT.D,ExtBa=13.60
10/06/2021,14:03:24,TEMP=23.8,BA=5.60,STAT.D,ExtBa=13.60
10/06/2021,14:05:24,TEMP=24.2,BA=5.60,STAT.F,ExtBa=13.50
10/06/2021,14:18:24,TEMP=23.3,BA=5.60,STAT.D,ExtBa=13.40
10/06/2021,14:20:23,TEMP=23.7,BA=5.52,STAT.D,ExtBa=13.30
10/06/2021,14:33:24,TEMP=22.8,BA=5.56,STAT.D,ExtBa=13.20
10/06/2021,14:35:23,TEMP=23.3,BA=5.56,STAT.D,ExtBa=13.10
10/06/2021,14:48:24,TEMP=22.8,BA=5.56,STAT.D,ExtBa=13.30
10/06/2021,14:50:23,TEMP=23.3,BA=5.52,STAT.D,ExtBa=13.20
10/06/2021,15:03:24,TEMP=23.2,BA=5.60,STAT.D,ExtBa=13.60
10/06/2021,15:06:10,TEMP=23.9,BA=5.60,STAT.F,ExtBa=13.20
10/06/2021,15:18:24,TEMP=23.5,BA=5.60,STAT.D,ExtBa=13.30
10/06/2021,15:20:23,TEMP=24.0,BA=5.68,STAT.D,ExtBa=13.20
10/06/2021,15:33:24,TEMP=23.3,BA=5.68,STAT.D,ExtBa=13.20
10/06/2021,15:35:23,TEMP=23.7,BA=5.68,STAT.D,ExtBa=13.10
10/06/2021,15:48:24,TEMP=23.5,BA=5.68,STAT.D,ExtBa=13.40
10/06/2021,15:50:25,TEMP=24.0,BA=5.68,STAT.D,ExtBa=13.30
10/06/2021,16:03:24,TEMP=23.4,BA=5.68,STAT.D,ExtBa=13.20
10/06/2021,16:05:24,TEMP=23.8,BA=5.68,STAT.E,ExtBa=13.10
10/06/2021,16:07:24,TEMP=23.9,BA=5.68,STAT.B,ExtBa=13.10
10/06/2021,16:18:23,TEMP=23.4,BA=5.68,STAT.D,ExtBa=13.20
10/06/2021,16:30:23,TEMP=23.3,BA=5.68,STAT.D,ExtBa=13.10
10/06/2021,16:42:23,TEMP=24.4,BA=5.64,STAT.D,ExtBa=13.70
10/06/2021,16:45:04,TEMP=24.7,BA=5.64,STAT.B,ExtBa=13.50
10/06/2021,16:57:23,TEMP=24.4,BA=5.64,STAT.D,ExtBa=13.60
10/06/2021,17:04:46,TEMP=24.1,BA=5.64,STAT.A,ExtBa=13.40
10/06/2021,17:14:03,TEMP=23.9,BA=5.48,STAT.D,ExtBa=13.30
10/06/2021,17:20:51,TEMP=24.0,BA=5.64,STAT.A,ExtBa=13.60
10/06/2021,17:33:23,TEMP=23.8,BA=5.64,STAT.D,ExtBa=13.40
10/06/2021,17:35:27,TEMP=24.2,BA=5.64,STAT.A,ExtBa=13.30
10/06/2021,17:45:41,TEMP=23.3,BA=5.64,STAT.A,ExtBa=13.20
10/06/2021,17:55:33,TEMP=23.1,BA=5.68,STAT.C,ExtBa=13.40
10/06/2021,18:04:10,TEMP=23.5,BA=5.68,STAT.A,ExtBa=13.40
10/06/2021,18:11:46,TEMP=23.9,BA=5.68,STAT.A,ExtBa=13.30
10/06/2021,18:18:32,TEMP=24.1,BA=5.68,STAT.A,ExtBa=13.20
10/06/2021,18:24:36,TEMP=24.1,BA=5.68,STAT.A,ExtBa=13.20
10/06/2021,18:30:04,TEMP=23.8,BA=5.40,STAT.B,ExtBa=13.10
10/06/2021,18:41:40,TEMP=23.2,BA=5.60,STAT.A,ExtBa=13.10
10/06/2021,18:51:02,TEMP=22.9,BA=5.68,STAT.A,ExtBa=13.10
10/06/2021,18:58:44,TEMP=23.2,BA=5.68,STAT.A,ExtBa=13.00
10/06/2021,19:05:12,TEMP=23.2,BA=5.60,STAT.A,ExtBa=13.00
10/06/2021,19:10:42,TEMP=22.9,BA=5.48,STAT.A,ExtBa=13.00
10/06/2021,19:15:28,TEMP=22.7,BA=5.48,STAT.A,ExtBa=13.00